FENGYUN 1C DEB

Satellite information

Favourite Embed

Satellite Type and Status

DEBRISIN ORBIT

Key statistics

Satellite FENGYUN 1C DEB at a glance.

Uptime

9618

Days in orbit

Revolutions

≈ 14.5

Per day

Orbit

SSO

Sun Synchronous Orbit

Inclination

98.8

Latest

Satellite identification and parameters

Extended collection of information and parameters for FENGYUN 1C DEB.

Object identification

Identified? True

Debris? True

Object name: FENGYUN 1C DEB

International designator: 1999-025ABF

Object number (NORAD): 30344

Object ID (CCSDS): 30344

Country: PEOPLES REPUBLIC OF CHINA (PRC)

Current information (Y/N): Y

RCS size: SMALL

Orbital parameters

Period: 99.371 minutes

Inclination: 98.8257 deg

SMA: 7106.678 km

Apoapsis: 733.393 km

Periapsis: 723.694 km

RAAN: 327.7368 deg

Eccentricy: 0.00068236

Argument of periapsis: 57.8934 deg

Mean anomaly: 12.5074 deg

Mean motion: 14.49114721 rev/day

Mean motion (dot): 0.00010083 rev/day2

B* drag term: 0.0026607498 1/REarth

Two-line elements (TLE)

Creation date: Sept. 7, 2025, 9:49 a.m.

Reference frame: TEME

Reference center: EARTH

Epoch: Sept. 7, 2025, 5:37 a.m. UTC

TLE line 0: 0 FENGYUN 1C DEB

TLE line 1: 1 30344U 99025ABF 25250.23438918 .00010083 00000-0 26607-2 0 9996

TLE line 2: 2 30344 98.8257 327.7368 0006824 57.8934 12.5074 14.49114721966786

Live tracking on map

Real-time ground track for satellite FENGYUN 1C DEB.

In-orbit conjunctions

A list of the most updated potential collisions computed for object FENGYUN 1C DEB.

Target Orbit TCA Probability of collision Miss distance Type
COSMOS 2251 DEB LEO 2024-09-15 05:34:33 0.0001119661 99.0 (m) DEBRIS

Associated space launch

Chinese polar orbiting meteorological satellite

FENGYUN 1C DEB was lifted into orbit during the mission ‘Long March 4B | Feng Yun 1C’, on board a Long March 4B space rocket.

The launch took place on May 10, 1999, 1:33 a.m. from Launch Complex 7.

For more information about the launch, click the button.

Launch to space Long March 4B | Feng Yun 1C
Long March 4B | Feng Yun 1C

Agency: N/A

Status: Launch Successful

Launch date: May 10, 1999, 1:33 a.m. UTC

Rocket: Long March 4B

Launch pad: Launch Complex 7

Location: Taiyuan Satellite Launch Center, People's Republic of China

...

Latest news about this satellite

There are no fresh news available about this satellite. Check back as we update our databases every day.


Newsletter sign-up

Weekly statistics, charts and insights to help you stay on top of the space industry.